Location: Unspecified
(0.0000°N, 0.0000°E)
Time: 08:43:01
(UTC+00:00)

deb Delta 104 - Pass Details

Date: 10 March 2026
Orbit: 1402 x 1485 km, 102.0° (Epoch: 18 April)

Event Time Altitude Azimuth Distance (km) Brightness Sun altitude
Rises 19:59:38 0° 200° (SSW) 4,490 ? -27.3°
Reaches altitude 10° 20:04:00 10° 222° (SW) 3,524 ? -28.4°
Maximum altitude 20:08:05 15° 253° (WSW) 3,173 ? -29.4°
Drops below altitude 10° 20:12:13 10° 283° (WNW) 3,549 ? -30.4°
Sets 20:16:42 0° 305° (NW) 4,541 ? -31.5°
